sat.trackr.live / text

‹ back to catalog

HULIANWANG DIGUI-104

NORAD 66420 · 2025-258J

PAYLOAD ACTIVE UNKNOWN

§ Identity

Operator
Country
PRC
Launch date
2025-11-10
Launch site
WSC
Launch vehicle
Mass (kg)
RCS (m²)

External: N2YO · Heavens-Above · Gunter

§ Orbital elements

Epoch: 2026-05-25T00:24:06.825888Z

Period
108.33 min
Inclination
50.0041°
Eccentricity
0.0001005
Mean motion
13.29322800 rev/d
Perigee alt
1,148.6 km
Apogee alt
1,150.1 km
Semi-major
7,527.5 km
B*
8.3626e-5
RAAN
18.4068°
Arg perigee
54.5458°
Mean anomaly
305.5508°
Rev number
2,664

§ Raw data

HULIANWANG DIGUI-1041 66420U 25258J   26145.01674567 -.00000085  00000+0  83626-4 0  99962 66420  50.0041  18.4068 0001005  54.5458 305.5508 13.29322800 26648

JSON: /api/v1/satellites/66420 · /tle

For live sub-satellite position, see the globe view (requires WebGL).

§ Visibility from observer

Set your observer location to see the next 7 days of passes ≥ 10°. The values pass through the URL so the page stays shareable.

No JS? Fill the form by hand. The geolocation button needs JavaScript.